TimeCDT,TemperatureF,Dew PointF,Humidity,Sea Level PressureIn,VisibilityMPH,Wind Direction,Wind SpeedMPH,Gust SpeedMPH,PrecipitationIn,Events,Conditions,WindDirDegrees,DateUTC
12:15 AM,42.8,37.4,81,29.88,10.0,West,3.5,-,N/A,,Clear,270,2012-11-02 05:15:00
12:35 AM,44.2,37.6,77,29.89,10.0,West,3.5,-,N/A,,Clear,260,2012-11-02 05:35:00
12:55 AM,43.3,37.6,80,29.89,10.0,West,3.5,-,N/A,,Clear,260,2012-11-02 05:55:00
1:15 AM,43.7,37.2,78,29.88,10.0,WNW,3.5,-,N/A,,Clear,300,2012-11-02 06:15:00
1:35 AM,42.1,36.9,82,29.89,10.0,NW,3.5,-,N/A,,Clear,320,2012-11-02 06:35:00
1:55 AM,43.3,37.0,78,29.89,10.0,NNW,5.8,-,N/A,,Clear,330,2012-11-02 06:55:00
2:15 AM,45.9,37.6,73,29.90,10.0,NW,4.6,-,N/A,,Clear,320,2012-11-02 07:15:00
2:35 AM,45.1,37.4,74,29.91,10.0,NNW,5.8,-,N/A,,Clear,340,2012-11-02 07:35:00
2:55 AM,44.6,37.0,75,29.91,10.0,NNW,5.8,-,N/A,,Clear,330,2012-11-02 07:55:00
3:15 AM,44.8,37.0,74,29.92,10.0,NNW,6.9,-,N/A,,Clear,330,2012-11-02 08:15:00
3:35 AM,44.6,36.9,74,29.92,10.0,NNW,8.1,-,N/A,,Clear,330,2012-11-02 08:35:00
3:55 AM,44.6,36.5,73,29.92,10.0,NNW,8.1,-,N/A,,Clear,330,2012-11-02 08:55:00
4:15 AM,44.1,36.0,73,29.93,10.0,NW,6.9,-,N/A,,Clear,320,2012-11-02 09:15:00
4:35 AM,42.8,35.2,75,29.94,10.0,NW,6.9,-,N/A,,Clear,320,2012-11-02 09:35:00
4:55 AM,42.6,34.9,74,29.95,10.0,NNW,9.2,-,N/A,,Clear,330,2012-11-02 09:55:00
5:15 AM,42.3,34.7,75,29.96,10.0,NNW,9.2,-,N/A,,Clear,330,2012-11-02 10:15:00
5:35 AM,41.4,34.3,76,29.97,10.0,NNW,9.2,-,N/A,,Clear,340,2012-11-02 10:35:00
5:55 AM,40.8,34.2,77,29.97,10.0,North,5.8,-,N/A,,Clear,360,2012-11-02 10:55:00
6:15 AM,40.5,34.0,78,29.98,10.0,North,6.9,-,N/A,,Clear,360,2012-11-02 11:15:00
6:35 AM,40.5,33.8,77,29.98,10.0,North,4.6,-,N/A,,Clear,10,2012-11-02 11:35:00
6:55 AM,39.7,33.8,79,30.00,10.0,North,4.6,-,N/A,,Clear,10,2012-11-02 11:55:00
7:15 AM,38.5,32.9,80,30.01,10.0,North,4.6,-,N/A,,Clear,350,2012-11-02 12:15:00
7:35 AM,38.1,33.1,82,30.01,10.0,North,3.5,-,N/A,,Clear,10,2012-11-02 12:35:00
7:55 AM,39.0,33.3,80,30.02,7.0,North,3.5,-,N/A,,Clear,360,2012-11-02 12:55:00
8:15 AM,39.7,34.0,80,30.04,7.0,Calm,Calm,-,N/A,,Clear,0,2012-11-02 13:15:00
8:35 AM,41.0,34.3,77,30.05,10.0,North,3.5,-,N/A,,Clear,350,2012-11-02 13:35:00
8:55 AM,41.9,33.8,73,30.05,10.0,North,6.9,-,N/A,,Clear,10,2012-11-02 13:55:00
9:15 AM,43.2,33.4,69,30.06,7.0,NNE,5.8,-,N/A,,Clear,20,2012-11-02 14:15:00
9:35 AM,44.2,32.9,64,30.07,10.0,NNE,8.1,-,N/A,,Clear,20,2012-11-02 14:35:00
9:55 AM,46.0,34.0,63,30.07,10.0,NE,6.9,-,N/A,,Clear,40,2012-11-02 14:55:00
10:15 AM,47.1,34.2,61,30.06,10.0,NE,8.1,-,N/A,,Clear,50,2012-11-02 15:15:00
10:35 AM,47.8,33.4,57,30.06,10.0,NE,6.9,-,N/A,,Clear,40,2012-11-02 15:35:00
10:55 AM,49.6,35.2,58,30.07,10.0,ENE,6.9,-,N/A,,Clear,60,2012-11-02 15:55:00
11:15 AM,50.4,35.1,56,30.07,10.0,ENE,6.9,-,N/A,,Clear,60,2012-11-02 16:15:00
11:35 AM,50.4,33.8,53,30.08,10.0,NNE,4.6,-,N/A,,Clear,30,2012-11-02 16:35:00
11:55 AM,51.1,33.3,51,30.07,10.0,ENE,5.8,-,N/A,,Clear,70,2012-11-02 16:55:00
12:15 PM,50.9,32.5,49,30.08,10.0,East,3.5,-,N/A,,Clear,80,2012-11-02 17:15:00
12:35 PM,51.6,33.6,50,30.07,10.0,Calm,Calm,-,N/A,,Unknown,0,2012-11-02 17:35:00
12:55 PM,52.2,32.9,48,30.07,10.0,North,4.6,-,N/A,,Unknown,10,2012-11-02 17:55:00
1:15 PM,52.7,34.0,49,30.06,10.0,NW,4.6,-,N/A,,Unknown,310,2012-11-02 18:15:00
1:35 PM,52.2,33.1,48,30.06,10.0,Calm,Calm,-,N/A,,Unknown,0,2012-11-02 18:35:00
1:55 PM,52.7,33.8,49,30.05,10.0,NNW,4.6,-,N/A,,Clear,330,2012-11-02 18:55:00
2:15 PM,54.1,33.6,46,30.05,7.0,ENE,3.5,-,N/A,,Unknown,70,2012-11-02 19:15:00
2:35 PM,54.1,33.6,46,30.04,10.0,North,5.8,-,N/A,,Unknown,360,2012-11-02 19:35:00
2:55 PM,54.0,33.8,46,30.04,10.0,ENE,5.8,-,N/A,,Clear,60,2012-11-02 19:55:00
3:15 PM,54.7,34.0,46,30.04,10.0,ENE,4.6,-,N/A,,Clear,60,2012-11-02 20:15:00
3:35 PM,54.9,32.7,43,30.04,4.0,NNE,4.6,-,N/A,,Haze,30,2012-11-02 20:35:00
3:55 PM,54.7,32.4,43,30.04,10.0,East,3.5,-,N/A,,Clear,90,2012-11-02 20:55:00
4:15 PM,54.9,32.9,43,30.04,10.0,ENE,3.5,-,N/A,,Clear,60,2012-11-02 21:15:00
4:35 PM,54.5,33.3,45,30.05,10.0,NE,4.6,-,N/A,,Clear,50,2012-11-02 21:35:00
4:55 PM,54.0,32.4,44,30.05,10.0,NE,4.6,-,N/A,,Clear,40,2012-11-02 21:55:00
5:15 PM,53.6,33.8,47,30.05,10.0,NE,3.5,-,N/A,,Clear,50,2012-11-02 22:15:00
5:35 PM,52.5,34.5,50,30.04,10.0,ENE,4.6,-,N/A,,Clear,60,2012-11-02 22:35:00
5:55 PM,51.6,34.2,51,30.04,10.0,Calm,Calm,-,N/A,,Clear,0,2012-11-02 22:55:00
6:15 PM,50.7,33.8,52,30.05,10.0,Calm,Calm,-,N/A,,Clear,0,2012-11-02 23:15:00
6:55 PM,45.7,37.4,73,30.06,10.0,Calm,Calm,-,N/A,,Clear,0,2012-11-02 23:55:00
7:15 PM,44.6,36.9,74,30.06,10.0,Calm,Calm,-,N/A,,Clear,0,2012-11-03 00:15:00
7:35 PM,43.7,36.5,76,30.05,10.0,ENE,3.5,-,N/A,,Clear,60,2012-11-03 00:35:00
7:55 PM,45.0,35.6,70,30.06,10.0,NE,4.6,-,N/A,,Clear,50,2012-11-03 00:55:00
8:15 PM,45.5,35.1,67,30.05,10.0,East,3.5,-,N/A,,Clear,80,2012-11-03 01:15:00
8:35 PM,43.9,35.2,72,30.05,10.0,ENE,3.5,-,N/A,,Clear,70,2012-11-03 01:35:00
8:55 PM,43.3,35.1,73,30.05,10.0,East,3.5,-,N/A,,Clear,80,2012-11-03 01:55:00
9:15 PM,45.1,34.0,65,30.05,10.0,Calm,Calm,-,N/A,,Clear,0,2012-11-03 02:15:00
9:35 PM,43.5,34.5,71,30.05,10.0,East,3.5,-,N/A,,Clear,80,2012-11-03 02:35:00
9:55 PM,45.1,33.8,65,30.07,2.5,Calm,Calm,-,N/A,,Haze,0,2012-11-03 02:55:00
10:15 PM,44.6,35.6,71,30.07,10.0,ENE,3.5,-,N/A,,Clear,60,2012-11-03 03:15:00
10:35 PM,45.0,34.9,68,30.07,10.0,East,3.5,-,N/A,,Clear,80,2012-11-03 03:35:00
10:55 PM,44.6,34.9,69,30.07,5.0,East,3.5,-,N/A,,Haze,90,2012-11-03 03:55:00
11:15 PM,44.4,35.2,70,30.07,10.0,ENE,3.5,-,N/A,,Clear,60,2012-11-03 04:15:00
11:35 PM,44.1,35.2,71,30.07,10.0,NE,4.6,-,N/A,,Clear,50,2012-11-03 04:35:00
11:55 PM,44.4,35.1,70,30.07,10.0,ENE,3.5,-,N/A,,Clear,60,2012-11-03 04:55:00